This demonstration page uses our WeatherBlox Daily Observations layout. Learn more.

Left ArrowRight Arrow

38.80484, -77.04692

Hourly Observations for April 1, 2016

Temp ( °F °C ) Dew Point ( °F °C ) Humidity (%) Winds ( mph kmh ) Pressure ( in mb ) Visibility ( mi km ) Precip ( " mm )
12:52 am 00:52 Cloudy with Light Rain 67 19.4 59 15 76 76 S 15 24 29.74 1007 10 16 0.00 0.03
1:09 am 01:09 Partly Cloudy 66 18.9 59 15 78 78 S 15 24 29.74 1007 10 16 0.00 0.03
1:52 am 01:52 Cloudy 66 18.9 59 15 78 78 S 12 19 29.75 1007 10 16 0.00 0.03
2:27 am 02:27 Cloudy 66 18.9 60 15.6 81 81 S 13 20 29.74 1007 10 16 0.00 0.00
2:52 am 02:52 Cloudy 66 18.9 60 15.6 81 81 S 12 19 29.73 1007 10 16 0.00 0.00
3:41 am 03:41 Cloudy with Light Rain 67 19.4 62 16.7 84 84 SSE 16 26 29.68 1005 10 16 0.00 0.03
3:52 am 03:52 Cloudy 68 20 62 16.7 81 81 S 17 28 29.68 1005 10 16 0.00 0.03
4:00 am 04:00 Cloudy 68 20 63 17 83 83 S 17 28 29.68 1005 10 16 0.00 0.00
4:14 am 04:14 Mostly Cloudy 66 19 61 16 83 83 S 13 20 29.68 1005 10 16 0.00 0.00
4:35 am 04:35 Cloudy 69 20.6 63 17.2 81 81 S 17 28 29.68 1005 10 16 0.00 0.00
4:52 am 04:52 Mostly Cloudy 68 20 62 16.7 81 81 S 12 19 29.68 1005 10 16 0.00 0.00
5:07 am 05:07 Cloudy 69 20.6 63 17.2 81 81 S 13 20 29.68 1005 10 16 0.00 0.00
5:29 am 05:29 Cloudy 69 20.6 63 17.2 81 81 S 17 28 29.68 1005 10 16 0.00 0.00
5:52 am 05:52 Cloudy 69 20.6 63 17.2 81 81 SSW 13 20 29.67 1005 10 16 0.00 0.00
6:08 am 06:08 Cloudy 70 21 63 17 78 78 SSW 15 24 29.68 1005 10 16 0.00 0.00
6:33 am 06:33 Cloudy 69 20.6 63 17.2 81 81 SSW 15 24 29.68 1005 10 16 0.00 0.00
6:52 am 06:52 Cloudy 69 20.6 63 17.2 81 81 SSW 14 22 29.68 1005 10 16 0.00 0.00
7:52 am 07:52 Cloudy 69 20.6 62 16.7 78 78 SSW 14 22 29.68 1005 10 16 0.00 0.00
8:32 am 08:32 Cloudy with Light Rain 68 20 63 17 83 83 SSW 17 28 29.68 1005 6 10 0.00 0.00
8:52 am 08:52 Cloudy with Light Rain 66 18.9 62 16.7 87 87 S 12 19 29.64 1004 5 8 0.04 1.02
9:52 am 09:52 Cloudy 64 17.8 62 16.7 93 93 S 12 19 29.66 1004 10 16 0.01 0.25
10:52 am 10:52 Cloudy 68 20 63 17.2 84 84 SSW 17 28 29.66 1004 10 16 0.00 0.00
11:52 am 11:52 Mostly Cloudy 70 21.1 62 16.7 76 76 SSW 16 26 29.64 1004 10 16 0.00 0.00
12:52 pm 12:52 Partly Cloudy 74 23.3 63 17.2 69 69 SSW 17 28 29.62 1003 10 16 0.00 0.00
1:52 pm 13:52 Partly Cloudy 76 24.4 63 17.2 64 64 S 17 28 29.59 1002 10 16 0.00 0.00
2:52 pm 14:52 Partly Cloudy 75 23.9 60 15.6 60 60 S 14 22 29.54 1001 10 16 0.00 0.00
3:13 pm 15:13 Partly Cloudy 81 27.2 58 14.4 45 45 SW 21 33 29.53 1000 10 16 0.00 0.00
3:52 pm 15:52 Partly Cloudy 82 27.8 58 14.4 44 44 SSW 22 35 29.52 1000 10 16 0.00 0.00
4:52 pm 16:52 Mostly Cloudy 81 27.2 57 13.9 44 44 SSW 18 30 29.54 1000 10 16 0.00 0.00
5:52 pm 17:52 Cloudy 80 26.7 57 13.9 45 45 SSW 17 28 29.55 1001 10 16 0.00 0.00
6:52 pm 18:52 Cloudy 79 26.1 57 13.9 47 47 SSW 16 26 29.57 1001 10 16 0.00 0.00
7:23 pm 19:23 Cloudy 77 25 59 15 54 54 SSW 17 28 29.56 1001 10 16 0.00 0.00
7:52 pm 19:52 Cloudy 78 25.6 54 12.2 43 43 WSW 13 20 29.58 1002 10 16 0.00 0.00
8:52 pm 20:52 Cloudy 75 23.9 57 13.9 54 54 SW 14 22 29.61 1003 10 16 0.00 0.00
9:52 pm 21:52 Cloudy 72 22.2 60 15.6 66 66 SSW 12 19 29.64 1004 10 16 0.00 0.00
10:38 pm 22:38 Cloudy 73 23 61 16 65 65 SW 5 7 29.65 1004 10 16 0.00 0.00
10:52 pm 22:52 Cloudy 74 23.3 52 11.1 46 46 WNW 10 17 29.65 1004 10 16 0.00 0.00
11:52 pm 23:52 Cloudy 72 22.2 45 7.2 38 38 NW 13 20 29.65 1004 10 16 0.00 0.00

Powered by AerisWeather